Printer-friendly version

IAU Minor Planet Center

Minor Planet Center

MPEC 2001-L25: 2000 WL10 = 1983 VB

The following Minor Planet Electronic Circular may be linked-to from your own Web pages, but must not otherwise be redistributed electronically.


Read MPEC 2001-L24 Read MPEC 2001-L26


M.P.E.C. 2001-L25                                Issued 2001 June 7, 19:49 UT

     The Minor Planet Electronic Circulars contain information on unusual
         minor planets and routine data on comets.  They are published
   on behalf of Commission 20 of the International Astronomical Union by the
          Minor Planet Center, Smithsonian Astrophysical Observatory,
                          Cambridge, MA 02138, U.S.A.

             Prepared using the Tamkin Foundation Computer Network

                              MPC@CFA.HARVARD.EDU
          URL http://cfa-www.harvard.edu/iau/mpc.html  ISSN 1523-6714

                              2000 WL10 = 1983 VB

                           Revision to MPEC 2000-W35

Orbital elements:
2000 WL10 = 1983 VB
Id. T. B. Spahr
Epoch 2001 Apr. 1.0 TT = JDT 2452000.5                  Williams
M  28.48885              (2000.0)            P               Q
n   0.17533627     Peri.  114.39808     +0.97848170     -0.11951422
a   3.1614637      Node   252.82184     +0.05538693     +0.93738611
e   0.7127212      Incl.   10.13974     +0.19876079     +0.32714466
P   5.62           H   18.0           G   0.15           U   1
Residuals in seconds of arc
831106 675  1.4+  1.4+    001125 428  0.7+  0.7+    001204 704  0.4-  0.2+
831106 675  2.8+  4.0+    001125 428  0.4+  0.7+    001204 704  0.3-  0.1-
831108 675  0.6-  5.0-    001125 428  0.3+  0.3+    001204 704  0.2-  0.4-
831108 675 (3.7- 12.9-)   001125 428  0.4+  0.4+    001204 704  0.1+  0.2-
001120 699  0.5-  0.8+    001127 704  0.3+  0.2+    001204 704  0.1+  0.6-
001120 699  0.1+  1.6+    001127 704  0.2+  0.3+    001205 355  0.1-  0.2-
001120 699  0.1+  0.4+    001127 704  0.2+  0.4+    001205 355  0.5+  0.4-
001120 699  0.0   0.4+    001127 704  0.3+  0.5+    001205 355  0.0   0.0
001120 696  0.1+  0.3+    001127 704  0.4+  0.4+    001206 726  0.8+  0.6+
001120 696  0.3-  0.2+    001128 726  0.3+  0.1-    001206 726  0.5-  0.1+
001121 719  0.6+  0.0     001128 726  0.4-  0.6-    001206 726  1.1+  0.3-
001121 719  0.5+  0.1+    001128 726  0.3+  0.6-    001206 726  0.4+  0.6-
001121 587  0.1+  0.1+    001128 726  0.3-  1.3+    001206 726  0.3+  1.2+
001121 587  0.0   0.1+    001128 726  0.1-  0.0     001206 726  0.5+  0.4+
001121 739  0.3+  1.1-    001128 726  0.4+  0.3-    001211 413  0.3-  0.4-
001122 739  0.1-  1.3-    001128 183  0.3+  0.2+    001211 413  0.3-  0.6-
001122 739  0.4-  1.2-    001128 183  1.9-  0.3+    001211 413  0.0   0.3-
001122 726  0.8-  1.9-    001128 183  1.2-  0.1+    001211 151  0.1+  0.7+
001122 726  1.3-  1.3-    001128 183  1.0+  0.0     001211 151  1.5+  0.6-
001122 726  1.3-  1.8-    001128 183  0.4-  0.1+    001211 151  0.1-  0.4-
001122 726  0.5-  1.4-    001128 183  0.9-  0.3+    001211 151  0.3-  0.2-
001122 726  0.7-  2.1-    001128 183  1.1-  0.3+    001211 151  0.5+  0.8-
001122 726  0.9-  1.5-    001128 183  1.4-  0.2+    001211 151  0.8+  0.2-
001122 726  0.6-  1.2-    001128 183  1.9-  0.2-    001211 151  0.9+  0.4-
001122 345  0.6+  0.5+    001128 183  1.5+  0.2+    001211 151  1.1+  0.4+
001122 345  1.1+  0.2+    001128 183  1.4-  0.6-    001211 151  1.4+  0.1-
001122 345  0.6+  0.3+    001128 610  0.5+  0.5+    001215 402  0.4-  0.3-
001122 345  0.6+  0.0     001128 610  0.5+  0.6+    001215 402  0.4-  0.3-
001122 345  0.8+  0.3+    001128 610  0.6+  0.6+    001215 402  0.6-  0.4-
001122 046  0.1+  0.7-    001128 610  0.7+  0.7+    001216 151  0.1-  0.0
001122 046  0.3+  0.1-    001128 610  0.7+  0.8+    001216 151  0.4-  0.2+
001122 046  0.3+  0.5+    001129 739  0.2-  0.2-    001216 151  0.5-  0.1+
001122 046  0.1-  0.2+    001129 739  0.4-  0.0     001216 151  0.0   0.5+
001122 046  0.1+  0.3+    001129 739  0.5-  0.3-    001216 151  0.0   0.3+
001122 046  0.5+  0.2+    001129 360  0.2+  0.1-    001216 151  0.1+  0.6+
001122 012  0.5-  0.2-    001129 360  0.1+  0.1-    001216 151  0.3-  0.4-
001122 012  0.6-  0.3-    001129 360  0.0   0.1-    001216 151  0.2-  0.1-
001122 012  0.0   0.3-    001129 183  0.1+  0.3+    001216 610 (3.0-  0.7+)
001122 012  0.1-  0.4-    001129 183  1.3-  0.4+    001216 610 (3.0-  0.7+)
001122 012  0.3+  0.2-    001129 183  0.6-  0.0     001216 610 (2.9-  0.6+)
001123 853  0.0   0.2+    001129 183  1.8-  0.4+    001216 610 (3.0-  0.6+)
001123 853  0.2-  0.0     001130 095  0.4-  0.1-    001216 610 (2.9-  0.5+)
001123 853  0.3+  0.1+    001130 095  0.4+  0.2-    001217 610  0.1+  0.5+
001123 919  0.1+  0.1+    001130 095  0.0   0.3-    001217 610  0.1+  0.5+
001123 919  0.9+  0.1-    001130 095  0.0   0.5-    001217 610  0.1+  0.4+
001123 919  0.1+  0.7-    001130 095  0.3+  0.2-    001217 610  0.2+  0.4+
001123 919  0.6-  0.4-    001130 095  0.4+  0.1+    001217 610  0.1+  0.4+
001123 608  0.8+  0.0     001130 095  0.3-  0.0     001219 610  0.3+  0.6+
001123 608  1.4+  0.1+    001130 095  0.9+  0.2+    001219 610  0.3+  0.6+
001123 608  1.7+  0.3+    001130 095  0.1-  0.2-    001219 610  0.1+  0.6+
001123 467  1.1-  1.0+    001130 095  0.9-  0.0     001219 610  0.1+  0.6+
001123 467  0.1-  0.9+    001130 095  0.4+  0.4-    001219 610  0.1-  0.7+
001123 900  1.1-  0.1+    001130 095  0.5+  0.4-    001220 118  0.2+  0.1-
001123 467  0.2-  1.7+    001201 108 (2.7+  2.0+)   001220 118  0.0   0.1-
001123 900  0.6-  0.7+    001201 108 (2.3+  1.6+)   001220 118  0.3+  0.3+
001123 046  0.3-  0.1+    001201 108  1.1+  1.1+    001221 704  0.1-  0.3-
001123 557  0.3+  0.3+    001201 108 (2.0+  1.2+)   001221 704  0.1+  0.1-
001123 046  0.1-  0.1+    001202 726  0.6+  0.2-    001221 704  0.2-  0.0
001123 557  0.8+  0.3+    001202 726  0.5+  0.6-    001221 704  1.4-  0.8-
001123 046  0.3-  0.2-    001202 726  0.4+  0.2+    001221 704  1.0-  1.0-
001123 046  0.2-  0.1-    001202 726  0.8-  0.3-    001223 610  0.1+  0.0
001123 557  0.0   0.1+    001202 726  0.5+  0.9-    001223 610  0.0   0.2+
001123 557  0.4+  0.2-    001202 726  0.9+  0.3-    001223 610  0.1+  0.4+
001124 726  1.6-  0.2+    001202 360  0.2+  0.1-    001223 610  0.1+  0.4+
001124 726  0.5+  0.2-    001202 360  0.2+  0.2-    001223 610  0.1+  0.6+
001124 726  0.6+  0.4+    001202 360  0.2+  0.2-    001223 151  0.0   0.2-
001124 726  0.3+  0.8+    001203 860  0.3-  0.6-    001223 151  0.1-  0.8-
001124 726  0.8+  0.4+    001203 860  0.2-  0.7-    001223 151  0.1-  0.6-
001124 726  1.7+  0.1+    001203 860  0.5+  0.5-    001223 151  1.6+  0.7+
001124 670  0.3-  0.5+    001203 860  0.6+  0.6-    001223 151  0.2+  0.3-
001124 670  0.2-  0.3+    001203 739  0.1-  0.2-    001223 151  0.1-  0.1-
001124 918  1.2+  0.5+    001203 739  0.9+  0.8-    001229 699  0.5-  0.7+
001124 918  0.6+  0.2+    001203 739  0.0   0.2-    001229 699  1.1-  0.7+
001124 918  0.9+  0.3+    001203 726  0.7-  0.3-    001229 699  0.6-  0.9+
001124 918  0.6+  0.4+    001203 726  0.4-  0.1-    001229 699  0.6-  0.3+
001124 670 (2.5-  0.4+)   001203 726  1.0-  1.0+    001230 711  0.4+  0.0
001124 918  0.7+  0.6+    001203 726  1.4-  0.0     001230 711  0.8-  0.1+
001124 918  0.9+  0.6+    001203 726  1.5-  0.1+    001230 711  0.2-  0.1-
001124 854  0.8-  0.1+    001203 726  0.3-  0.1+    010103 704  0.0   0.3-
001124 854  0.5-  0.3-    001203 183  1.1-  0.8+    010103 704  0.2+  0.1-
001124 854  0.7-  0.4-    001203 183  1.6-  0.2+    010103 704  0.4-  0.3+
001124 900  0.4+  0.2+    001203 183  1.4-  0.5-    010103 704  0.2+  0.3+
001124 900  0.2-  0.0     001203 183  0.9-  0.2-    010103 704  0.9+  0.3+
001124 726  0.1+  0.1+    001203 183 (2.5-  0.1+)   010323 568  0.3+  0.3-
001125 726  1.4+  1.2-    001203 183  0.2+  0.2+    010323 568  0.1+  0.4-
001125 726  0.3+  0.4+    001203 183  0.5-  0.1-    010324 568  0.3+  0.0
001125 726  0.8+  0.1-    001203 170  1.1-  1.2-
001125 726  0.8+  0.2-    001203 170 (2.7+  0.1+)

Timothy B. Spahr             (C) Copyright 2001 MPC           M.P.E.C. 2001-L25

Read MPEC 2001-L24 Read MPEC 2001-L26


Our Web policy. Index to the CBAT/MPC/ICQ pages.


Valid HTML 4.01!